Theta_e
337 337 338 339 339 339 340 340 339 339 339 338 338 337 338 337 337 338 337 337 337 337 336 335 335 335 336 337 337 338 337 336 335 336 337 337 337 336 336 336 336 335 334 333 333 333 333 335 335 334 334 334 334 334 335 335 334 333 332 331 331 331 331 330 330 330 329 329 329 329 329 329 329 329 329 330 330 330 330 329 329 329 326 323 324
341 340 339 339 341 340 340 340 339 338 338 338 337 337 338 338 338 338 337 337 337 337 336 336 335 336 336 336 337 337 336 334 334 334 336 337 336 336 337 336 336 335 334 333 333 333 333 334 335 335 335 335 334 335 335 335 334 333 332 331 331 331 331 330 330 330 329 329 329 329 329 328 328 328 329 329 329 329 329 329 329 329 327 324 323
345 343 340 340 341 341 340 340 339 339 337 337 337 337 338 338 338 338 338 338 337 337 336 336 336 336 336 336 336 336 334 335 335 334 335 336 336 336 336 336 335 334 334 333 333 333 333 334 335 335 335 335 334 335 335 334 333 333 332 331 331 331 330 330 330 330 328 328 329 329 329 328 329 328 328 328 328 328 329 329 329 329 328 326 324
346 344 341 341 341 340 340 339 338 338 337 336 337 337 338 338 338 338 338 338 337 336 336 336 336 336 336 336 336 335 333 334 335 335 336 336 336 336 336 335 335 334 334 334 333 332 332 333 334 335 334 334 335 335 335 334 333 333 332 331 331 331 330 330 330 329 328 328 328 328 328 328 329 330 328 328 328 329 328 328 329 329 328 327 326
344 345 343 342 342 340 340 339 338 337 337 337 337 337 338 338 337 338 338 337 337 336 335 336 336 336 336 335 334 332 332 333 334 334 335 336 336 336 336 335 335 334 333 333 333 332 332 333 334 335 334 334 335 335 334 333 334 333 332 331 331 331 331 330 330 329 328 328 328 328 328 328 329 329 328 328 328 329 329 328 328 328 328 328 327
344 343 343 342 341 340 339 339 338 337 337 337 337 337 337 338 338 338 337 337 338 337 335 335 335 335 335 334 332 330 331 333 333 334 334 335 336 336 335 335 335 334 333 333 333 332 332 332 333 335 335 335 335 334 333 333 334 333 332 331 331 331 331 331 330 329 329 328 327 328 328 328 327 327 329 328 328 328 329 328 328 328 328 328 328
345 342 338 338 338 339 339 339 338 338 337 337 337 336 336 337 337 337 336 336 337 337 336 335 335 335 335 334 333 332 333 333 333 333 334 335 335 335 335 335 335 333 332 333 333 332 333 332 333 334 334 335 335 334 333 333 334 334 333 332 331 331 331 331 330 330 329 328 328 328 328 329 327 327 328 328 328 328 328 327 327 328 327 327 328
341 338 334 332 333 334 333 333 333 334 335 335 333 332 334 336 335 335 335 335 336 337 336 336 335 335 335 334 334 334 334 334 334 333 334 335 335 335 335 335 335 333 333 334 333 333 333 333 333 333 334 335 335 335 333 333 334 334 333 332 331 331 331 331 330 330 330 329 329 329 330 329 327 326 326 326 327 328 329 327 327 328 327 327 328
333 332 331 329 329 330 328 328 328 329 331 331 330 331 333 335 336 335 335 335 336 336 336 336 335 335 335 334 333 334 334 334 334 334 334 334 334 335 335 334 334 334 334 334 333 334 333 333 332 333 334 335 335 334 334 334 334 334 333 332 332 331 331 331 330 330 331 330 329 329 330 328 327 326 326 325 326 328 330 328 327 327 327 327 327
328 328 329 329 329 328 328 328 328 328 329 329 329 330 333 335 336 335 335 335 336 336 336 335 334 334 334 334 334 333 333 332 333 333 334 334 335 335 334 334 334 334 335 334 334 334 333 332 333 333 334 335 335 334 333 334 334 334 333 333 332 332 331 331 331 331 331 330 329 330 329 327 326 326 325 326 326 327 329 328 327 327 327 327 327
326 326 327 328 328 327 328 327 327 327 328 329 330 332 333 334 335 336 336 335 336 337 335 332 332 333 334 334 334 333 333 332 332 333 334 334 335 334 334 333 333 334 334 334 334 333 332 332 333 334 334 335 335 334 333 334 334 334 334 333 332 332 332 331 331 331 331 331 330 330 329 328 327 326 326 326 326 325 326 327 327 327 327 327 327
324 324 324 326 327 327 327 326 326 325 327 329 330 331 331 331 333 335 336 335 336 336 333 330 329 332 333 334 334 333 333 332 333 333 334 334 334 334 333 333 333 333 334 334 333 333 332 332 333 334 335 335 335 334 334 334 333 333 333 333 333 333 332 332 332 331 331 331 330 330 330 328 327 327 327 326 326 325 325 326 326 326 326 326 326
321 321 321 322 325 326 327 326 326 325 326 327 327 328 328 330 332 334 334 334 334 331 329 327 328 329 332 334 334 333 333 333 333 333 334 334 334 333 333 333 333 333 334 334 333 333 333 332 332 334 335 335 335 334 334 334 333 333 333 333 333 333 333 332 332 332 331 330 330 330 330 329 327 327 327 326 325 325 325 325 325 326 325 325 326
319 319 319 320 322 324 325 326 325 325 326 325 325 326 328 329 331 332 332 333 333 330 327 327 328 328 330 333 333 333 333 333 333 333 333 334 334 334 333 333 333 333 334 334 333 333 333 332 333 334 335 335 334 335 334 333 333 333 333 333 333 333 332 332 331 331 331 331 330 330 330 330 328 327 328 327 326 325 325 324 324 325 325 324 325
317 317 317 318 319 320 322 324 325 326 326 326 325 325 326 328 328 330 330 331 332 330 328 328 328 329 330 331 333 333 333 333 333 333 333 333 334 334 334 333 333 334 334 334 333 333 333 333 334 334 335 335 334 334 333 333 333 333 333 333 333 332 332 332 331 331 331 331 330 330 330 330 329 328 328 328 327 326 325 324 324 325 325 324 324
315 315 315 315 317 317 318 320 322 325 326 326 327 326 325 327 327 329 329 329 329 328 328 329 329 329 330 331 333 333 333 333 333 333 333 332 333 333 334 334 334 334 334 333 333 333 333 334 334 335 335 335 335 334 333 333 333 332 333 333 332 332 331 331 332 331 331 331 331 330 330 330 330 329 329 329 328 327 326 325 325 325 326 325 325
313 313 313 313 314 314 315 316 317 320 322 323 324 325 326 326 326 328 328 328 328 328 328 329 330 330 329 330 332 332 333 333 333 333 333 332 331 332 333 334 334 334 334 333 333 333 333 334 335 335 334 334 334 333 333 333 333 332 332 332 332 331 331 331 332 331 331 331 330 330 330 330 330 330 330 329 329 328 327 326 325 325 325 325 326
312 311 312 312 312 312 313 314 314 316 317 318 319 321 324 326 326 327 327 327 327 328 328 328 328 328 329 329 330 331 333 333 333 334 333 332 331 331 332 333 332 332 333 334 333 333 333 334 334 334 334 333 333 333 332 332 332 331 331 332 332 331 332 332 331 331 331 330 330 329 329 330 330 329 330 330 330 329 327 326 326 325 325 324 324
311 310 310 310 310 311 311 312 312 313 314 315 316 317 320 323 325 326 327 326 327 328 328 328 328 328 328 329 329 330 331 333 333 333 332 332 331 331 331 332 331 330 330 332 333 333 334 333 333 333 333 332 332 331 331 331 331 331 331 332 332 332 332 332 331 331 331 331 330 329 329 330 330 330 330 330 329 328 328 327 326 325 325 324 323
309 309 309 309 309 310 310 310 311 311 312 313 314 315 316 319 321 323 325 326 327 328 328 328 329 329 328 328 329 329 330 332 331 331 331 331 331 332 332 331 331 331 330 330 331 333 333 333 333 333 332 332 331 331 331 331 331 331 331 332 332 332 332 332 331 331 331 331 331 330 330 330 330 330 330 330 329 329 329 327 326 326 324 324 323
308 308 308 308 309 308 309 309 309 310 310 311 312 312 313 315 317 319 322 324 326 327 328 328 328 328 327 327 327 327 330 332 329 329 332 332 331 332 332 331 331 331 331 330 329 330 332 333 333 332 332 332 331 331 331 331 331 331 331 332 333 332 332 331 331 331 331 331 331 331 331 330 329 329 329 329 330 330 329 328 326 326 325 324 323
307 307 307 307 308 307 308 308 308 308 309 309 310 310 311 312 313 315 318 321 324 326 327 328 328 328 328 328 328 328 330 331 330 330 331 331 331 331 331 331 330 330 331 330 329 327 330 332 332 331 331 331 331 331 331 331 331 332 332 332 332 332 331 331 331 331 331 331 331 331 331 330 330 330 329 329 330 330 330 328 327 326 325 325 323
306 306 306 307 307 307 307 307 307 307 307 308 309 309 309 310 310 312 315 317 321 323 325 326 327 328 328 328 329 329 330 331 330 330 330 329 331 331 331 330 330 330 330 330 328 326 328 332 331 330 330 330 330 330 329 330 330 330 331 331 331 331 331 331 331 331 331 331 330 330 330 330 330 330 330 329 329 329 330 329 327 326 326 325 324
305 305 305 306 306 306 306 306 306 306 306 307 307 307 307 308 308 310 313 315 317 318 320 322 324 326 327 328 329 330 331 331 331 331 329 329 330 331 330 330 330 330 330 330 329 325 327 331 331 330 330 329 329 329 328 329 328 328 329 330 331 331 331 331 331 331 331 331 331 330 330 330 330 330 330 330 329 329 329 329 327 326 326 326 325
304 304 304 305 305 305 305 305 305 305 305 305 305 305 305 306 307 307 310 313 315 315 317 319 322 323 325 327 328 330 331 331 331 331 329 329 330 331 330 329 329 329 329 330 329 326 327 330 330 329 329 329 328 328 328 328 327 327 328 329 330 330 331 331 331 331 331 331 330 330 329 330 330 331 330 330 330 329 329 329 328 327 327 326 326
303 303 303 303 304 304 304 304 304 304 304 304 304 304 304 304 305 305 307 310 313 314 315 317 320 322 323 325 326 328 330 330 331 331 330 329 329 330 330 329 329 329 329 329 328 326 327 330 329 329 329 329 328 327 327 327 327 327 328 328 330 330 330 330 330 330 330 330 329 329 329 329 329 330 330 330 330 329 328 329 328 327 326 326 326
302 302 302 302 302 303 303 303 303 303 303 303 303 303 303 303 303 304 305 307 310 313 314 314 317 320 321 323 324 325 328 329 330 331 329 328 328 330 329 328 329 329 329 329 327 326 328 329 329 329 329 328 327 326 327 326 326 327 326 327 328 329 329 329 328 328 329 329 328 327 328 329 329 329 329 329 329 328 327 328 328 327 326 325 325
302 301 301 301 301 302 302 302 302 302 302 302 302 302 302 302 302 304 305 306 308 311 312 313 314 316 318 319 321 324 326 327 329 329 328 328 328 328 328 328 329 329 329 329 327 325 327 329 328 328 327 326 325 325 326 326 326 326 325 326 327 327 327 327 326 326 327 327 326 326 327 328 328 328 329 329 328 327 327 327 328 328 326 325 324
301 301 301 300 300 301 301 301 301 301 301 301 301 301 301 301 302 303 304 305 306 308 310 311 313 314 315 316 319 322 325 326 328 328 327 327 326 327 328 328 328 327 327 328 326 325 327 328 327 327 326 324 324 325 325 325 325 325 325 325 325 325 325 325 325 325 326 326 325 326 327 327 327 328 328 329 328 327 326 327 327 327 325 324 324
301 300 300 300 300 300 300 300 300 300 300 300 301 301 301 301 301 302 303 304 305 305 307 309 310 312 314 315 317 320 324 326 327 327 327 327 326 326 327 326 326 325 325 326 325 325 327 327 327 327 325 324 324 324 324 324 324 324 324 323 323 324 324 323 324 324 324 325 325 325 325 326 326 327 327 327 327 326 326 325 325 325 324 324 323
300 300 300 299 300 300 300 300 300 300 300 300 300 301 301 301 301 301 302 303 304 304 305 306 307 310 312 314 315 318 322 325 326 326 327 326 326 326 326 325 326 325 324 325 326 326 327 327 326 325 324 323 322 322 323 323 322 322 323 322 322 322 322 322 323 324 324 324 324 324 325 326 326 326 326 326 326 325 324 324 323 324 324 323 323
300 300 299 299 300 300 299 299 300 300 300 300 300 301 301 301 301 301 302 302 303 304 304 305 305 307 310 312 313 316 321 324 325 326 326 326 326 325 325 325 325 324 323 325 326 326 326 325 324 322 321 321 321 321 322 322 321 321 321 321 321 321 321 322 323 324 324 324 323 324 325 326 325 324 323 322 322 321 321 321 320 321 321 322 322
299 299 299 299 299 299 299 299 299 299 300 300 300 300 301 301 301 301 302 303 303 303 304 304 305 306 308 310 311 313 317 322 325 325 325 325 325 325 324 324 323 322 322 323 324 323 322 321 320 320 319 319 320 321 321 321 321 321 320 320 320 320 321 323 323 323 323 323 323 324 325 325 323 321 321 320 317 316 316 316 316 316 316 316 317
298 298 298 298 298 298 298 299 299 299 299 300 300 300 301 301 301 302 302 302 303 303 303 304 304 304 306 309 311 311 313 318 323 324 325 325 324 324 323 322 321 320 319 320 321 320 318 317 318 318 318 318 319 320 320 320 320 320 319 319 319 320 321 322 322 323 323 323 324 324 325 325 323 321 322 320 316 314 314 315 315 314 314 315 315
298 298 298 298 298 298 298 299 299 299 299 300 300 300 301 301 301 301 302 302 302 303 303 303 304 304 304 307 309 310 310 313 317 320 322 323 322 320 319 318 317 316 315 316 318 316 315 315 316 317 317 317 318 319 319 319 319 318 319 318 318 318 320 321 322 322 322 321 321 321 321 321 321 320 320 318 315 314 316 317 317 316 315 315 316
299 298 298 298 298 298 298 299 299 299 299 299 300 300 300 301 301 301 301 302 302 302 302 302 303 304 304 305 307 309 308 309 313 314 314 316 316 316 314 312 311 311 310 311 313 313 313 314 314 315 315 315 317 318 319 319 318 318 318 318 318 318 319 320 320 319 319 317 317 317 318 318 317 317 316 316 316 316 317 317 317 315 315 315 314
299 299 298 298 298 298 298 298 298 298 299 299 299 300 300 300 301 301 301 301 301 301 302 302 302 303 303 304 306 308 307 307 309 310 308 309 310 310 309 309 307 306 306 307 309 310 310 312 312 313 314 314 315 318 319 319 318 318 318 318 318 318 317 317 316 315 315 314 314 315 316 317 317 317 317 317 318 319 318 318 317 315 314 313 311
299 299 299 299 299 299 299 298 298 298 298 299 299 299 299 300 300 300 300 300 301 301 301 301 302 302 303 303 304 306 307 306 306 307 306 305 305 306 305 306 305 303 302 304 307 307 308 310 311 311 313 313 315 317 319 319 318 318 318 318 317 316 315 314 313 312 312 312 312 312 313 314 315 315 314 315 315 316 317 316 314 313 311 309 306
299 299 299 299 299 299 299 299 298 298 298 298 299 299 299 299 299 299 299 299 299 300 300 300 301 302 303 303 303 305 307 306 305 305 306 304 303 303 303 303 303 301 301 302 304 305 306 306 307 309 310 312 313 315 318 319 318 317 317 317 317 315 313 311 310 310 310 310 310 310 310 311 311 311 311 311 311 312 313 312 311 311 309 305 302
300 299 299 299 299 300 300 299 299 298 298 298 298 299 299 299 299 299 299 299 299 299 299 300 301 302 302 303 303 303 305 306 306 305 304 304 302 301 301 301 301 301 301 301 302 302 302 302 303 304 306 309 311 313 314 316 317 317 316 316 316 315 312 310 309 308 308 307 307 307 307 306 306 306 307 307 307 307 308 307 306 306 305 302 300
300 299 300 300 300 300 300 300 300 299 299 299 299 299 299 299 299 299 299 299 299 299 299 300 300 301 302 302 302 303 304 305 306 305 304 303 302 301 301 301 300 300 300 300 300 300 300 300 300 301 301 303 307 310 311 313 314 314 314 314 313 311 310 308 307 306 305 304 303 303 302 301 301 302 302 303 303 302 303 302 302 302 301 301 301
299 299 299 299 300 300 299 300 300 300 300 300 299 300 299 299 299 299 300 300 300 299 299 299 299 300 301 302 302 302 302 303 305 306 305 304 303 302 301 301 300 300 300 300 299 299 299 299 299 299 299 299 301 304 307 310 311 311 311 311 310 307 307 307 305 303 302 301 301 301 300 300 300 301 301 301 301 301 301 301 302 302 302 302 303
299 299 299 299 299 300 299 299 299 299 300 300 300 300 300 299 299 300 300 300 300 300 299 299 299 299 299 300 301 302 302 302 304 306 306 305 303 302 302 302 301 300 300 300 299 299 299 299 299 299 299 299 299 299 301 303 305 306 305 305 305 303 303 303 302 300 300 301 301 301 301 301 301 302 302 302 302 302 302 303 304 304 304 304 304
299 299 299 299 299 299 299 299 299 299 300 300 300 300 300 300 299 299 300 300 300 300 300 299 299 299 299 299 300 301 302 302 303 304 305 305 304 303 303 302 302 301 301 300 300 299 298 298 298 299 299 299 299 299 299 299 300 300 300 300 300 299 299 299 299 299 300 301 302 301 302 302 302 302 302 302 302 302 302 303 303 304 305 305 305
299 299 299 299 299 299 299 299 299 299 299 299 299 300 300 300 299 299 299 300 299 299 300 300 299 299 299 299 299 300 300 301 302 303 304 304 305 304 304 303 302 302 301 300 299 299 298 297 297 298 298 299 299 299 299 299 299 299 299 299 298 298 298 298 298 299 301 301 301 301 301 301 301 301 301 301 301 301 301 301 301 302 303 304 304
299 299 299 299 299 299 299 299 299 299 299 299 299 300 300 300 300 299 299 299 300 299 299 300 300 299 298 298 299 299 299 300 301 302 303 303 303 303 303 303 303 302 302 301 300 299 298 298 297 297 297 298 298 299 299 299 299 299 299 299 298 298 299 299 300 301 301 301 301 301 301 301 300 300 301 300 300 300 300 300 300 300 301 301 301
300 300 300 299 299 299 299 299 299 299 299 299 299 299 299 299 299 299 299 299 299 300 299 299 300 300 299 298 298 298 299 299 299 300 301 301 302 302 302 302 302 302 302 302 301 300 299 298 297 297 298 298 298 298 298 298 298 298 298 298 299 299 300 301 301 301 301 301 301 300 300 300 300 300 300 299 299 299 299 299 299 299 299 299 299
300 300 300 300 299 299 299 299 299 299 299 299 299 299 299 299 298 299 299 298 298 299 299 299 300 300 300 299 298 298 298 298 298 298 299 299 299 300 300 301 301 301 301 301 301 301 300 299 299 298 298 298 297 297 297 297 297 297 298 299 300 300 300 301 301 301 300 300 300 300 300 299 299 299 299 299 298 298 298 298 298 297 297 297 297
300 300 300 300 300 300 299 299 299 299 299 299 299 299 299 299 299 299 299 298 298 298 299 299 299 300 300 299 298 298 298 297 297 297 297 297 297 298 298 298 299 299 300 300 300 300 299 299 299 299 298 297 297 296 296 297 297 298 299 300 300 300 301 301 300 300 300 300 299 299 299 299 299 298 298 297 297 297 296 296 296 296 296 296 296
300 299 300 300 300 300 300 299 299 299 299 299 299 299 299 299 299 299 299 298 298 298 299 299 299 299 300 300 299 298 297 297 297 296 296 296 296 297 297 297 297 297 297 298 298 298 298 298 298 298 298 297 297 296 296 297 297 298 299 300 300 300 300 300 300 300 300 299 299 298 298 297 297 297 296 295 295 294 294 294 294 294 294 295 295
298 298 298 299 299 299 299 300 300 299 299 299 299 299 298 298 299 299 298 298 297 297 298 299 299 299 299 300 300 299 298 297 297 296 296 296 296 296 297 297 297 297 296 296 297 297 297 298 298 297 297 297 297 297 297 297 298 298 299 300 300 300 300 300 300 300 299 298 298 297 296 295 296 295 294 293 293 292 292 292 293 293 293 293 294
Wind_Speed
7 13 19 21 21 22 23 23 24 23 22 23 22 22 23 24 25 27 28 30 31 28 27 27 25 23 22 23 24 23 23 23 23 23 24 24 25 25 26 26 25 25 26 25 24 23 22 21 20 20 20 20 19 19 19 18 17 18 18 18 17 17 17 17 17 19 17 13 11 10 8 6 4 5 7 9 12 12 11 11 11 9 9 11 11
4 9 13 16 17 19 22 22 23 22 21 22 23 24 24 25 26 29 30 31 31 28 28 28 25 24 24 25 26 24 21 21 21 22 22 22 23 24 25 25 24 24 25 25 24 24 24 23 22 22 22 21 20 19 18 17 17 19 20 19 17 18 19 18 19 17 13 11 10 9 7 5 3 2 3 4 6 8 8 9 8 9 9 10 10
4 6 10 14 16 19 21 21 23 22 21 23 24 25 25 25 27 30 32 31 29 28 27 26 24 22 23 25 26 23 20 21 20 19 19 19 21 24 25 25 24 23 24 25 25 24 24 25 24 23 23 22 20 19 19 18 19 20 21 20 19 18 17 19 20 14 13 14 11 6 3 2 2 2 3 3 3 3 5 7 7 9 10 10 10
6 6 7 11 15 17 18 18 20 20 20 22 24 26 26 28 31 33 33 30 28 27 26 25 23 21 22 23 24 21 19 20 19 17 18 19 21 24 25 24 23 24 25 25 25 25 24 24 25 24 23 21 20 20 20 20 20 21 21 21 21 20 16 19 19 13 16 16 8 3 2 1 1 2 4 4 3 4 4 6 8 9 10 10 10
7 6 5 6 9 12 12 13 15 17 20 23 25 27 29 31 33 33 31 29 29 29 26 25 24 23 20 18 19 19 18 18 18 17 19 21 22 24 24 22 22 24 26 26 26 26 24 24 25 25 23 21 21 21 21 21 21 21 22 22 23 23 20 21 18 14 16 16 9 5 3 1 2 2 5 4 3 6 7 7 8 9 10 10 10
2 3 3 3 3 3 5 10 15 17 20 24 26 28 29 30 32 32 30 29 31 30 28 27 27 26 24 21 20 21 20 20 21 22 23 23 23 24 23 22 22 24 26 28 27 26 25 25 26 26 25 23 22 22 22 22 22 22 22 22 23 24 22 22 20 15 17 16 10 7 3 2 5 7 4 1 3 5 6 7 7 8 9 9 9
4 6 6 7 7 5 1 7 12 16 23 25 23 23 23 22 23 23 22 24 29 30 28 28 27 26 26 25 24 24 25 25 26 25 25 23 22 22 21 22 23 24 26 27 27 26 25 25 26 26 27 24 22 23 23 23 23 22 22 22 22 23 23 24 23 19 18 17 12 7 3 2 8 11 6 3 3 4 6 8 7 7 8 9 9
6 6 7 8 8 9 10 9 12 9 9 12 7 4 5 7 10 13 14 17 23 27 28 28 27 27 26 25 25 26 27 26 27 26 25 23 22 22 21 22 23 25 27 26 26 27 25 25 26 27 27 25 23 23 23 23 23 23 22 21 21 22 22 22 24 22 19 19 15 10 6 5 10 12 11 8 4 2 4 6 7 8 9 9 10
10 9 9 9 9 12 14 16 24 24 13 9 6 2 4 9 13 16 17 19 23 25 27 29 29 28 27 26 26 27 26 24 25 25 24 23 23 22 22 23 25 26 27 26 26 26 24 24 26 27 27 25 23 22 22 23 24 23 23 22 21 22 21 19 21 22 21 20 17 12 7 8 10 8 11 10 5 3 3 3 6 8 8 10 11
11 10 10 10 10 13 15 15 17 17 12 7 9 10 13 18 20 19 19 21 24 25 27 29 30 29 28 28 27 26 23 20 22 23 23 22 23 23 23 23 25 26 25 23 23 23 22 22 24 27 26 24 23 22 21 23 24 23 22 22 21 21 21 20 18 19 20 20 19 15 11 12 10 6 10 11 6 5 3 3 8 8 6 10 11
10 11 11 13 13 14 15 16 15 10 6 8 15 17 19 21 20 21 22 22 25 27 29 30 29 28 28 29 28 25 22 20 20 21 22 22 23 23 21 21 23 26 25 21 20 21 22 22 24 26 25 23 23 21 21 22 23 22 21 21 22 21 21 21 19 19 20 21 20 17 15 15 14 11 15 16 11 7 5 5 8 9 7 10 12
11 11 12 12 12 13 15 16 14 7 2 6 14 17 19 20 18 21 24 25 26 25 24 25 24 25 27 28 27 24 21 21 20 20 22 22 22 20 20 22 24 26 25 22 21 22 23 23 24 25 25 23 22 22 21 21 21 22 21 21 21 21 21 21 21 20 21 23 22 19 17 16 17 16 17 19 16 13 11 7 8 10 7 7 11
11 10 10 10 9 11 12 13 12 7 4 2 6 6 7 12 14 16 19 20 20 15 13 16 17 19 22 25 26 23 21 21 21 21 22 22 22 21 21 23 25 25 25 24 24 24 25 25 24 25 24 22 22 22 21 20 21 21 21 21 20 20 21 21 21 21 22 23 22 20 17 16 17 15 14 17 16 15 14 10 9 10 6 5 9
10 9 10 9 10 12 12 11 11 10 9 7 6 5 4 7 8 7 9 13 16 16 16 15 15 18 21 23 25 23 22 23 23 23 23 22 22 23 24 24 25 26 27 26 25 25 25 24 24 24 23 22 22 22 21 21 21 20 19 21 21 21 21 20 20 19 20 21 21 21 19 17 18 16 13 14 16 16 15 14 12 7 5 7 7
10 10 10 11 12 15 16 15 13 10 11 12 10 8 8 10 10 8 8 12 17 20 22 21 18 21 25 24 25 23 23 24 25 24 24 24 23 23 25 26 26 27 28 26 24 24 23 21 23 24 23 22 21 21 22 21 20 20 19 20 21 21 21 20 18 18 18 19 19 19 19 18 18 17 14 14 17 18 16 18 18 10 3 4 5
10 9 10 13 16 17 18 19 19 15 14 15 15 12 10 12 11 11 11 10 13 18 22 25 25 28 28 26 25 24 23 24 24 23 24 24 23 24 25 27 28 28 27 26 24 23 23 22 23 25 23 22 21 21 22 22 20 20 19 19 20 21 21 19 18 17 17 18 17 17 17 18 17 16 15 14 16 18 16 18 22 18 9 4 3
9 9 9 12 16 18 18 19 22 22 21 21 21 18 13 11 12 12 11 9 11 18 23 26 25 26 25 24 24 24 24 25 25 24 24 23 21 22 24 25 28 29 27 26 25 24 25 24 24 24 22 22 22 21 21 21 20 20 19 19 20 21 20 19 18 17 17 17 17 16 16 16 16 16 16 15 16 18 18 17 22 25 19 9 4
10 11 11 14 17 19 19 20 23 24 24 25 24 23 19 13 10 12 13 11 12 16 20 21 17 14 15 18 21 23 24 26 26 24 24 22 19 19 21 21 21 23 26 27 26 25 25 25 23 22 22 22 21 21 21 21 21 20 19 19 19 20 19 18 17 16 15 15 16 16 15 14 16 16 17 16 16 19 19 19 22 25 23 17 11
11 12 12 14 17 19 20 21 24 26 26 25 24 24 23 19 14 12 12 11 11 13 16 17 14 13 15 18 22 25 26 28 27 23 20 19 19 19 21 20 17 17 19 23 26 27 26 25 24 23 22 22 21 21 21 21 21 21 19 19 19 19 19 18 16 15 15 14 14 14 14 13 15 16 15 15 16 18 19 20 22 24 23 21 18
10 11 11 13 16 18 19 19 22 24 24 24 25 25 23 22 20 17 13 10 9 10 12 15 16 17 17 18 22 25 28 29 26 21 19 20 20 21 23 24 21 19 19 20 24 28 27 25 25 24 24 23 21 21 21 21 21 20 19 19 20 19 18 18 17 15 15 14 14 13 13 13 14 15 15 14 15 16 17 19 22 24 23 19 17
10 10 11 12 15 17 18 19 22 23 24 25 26 25 24 24 22 21 18 14 12 9 10 13 15 15 15 16 20 23 27 28 20 18 23 23 19 19 21 22 21 22 23 23 24 27 27 26 25 25 24 23 22 22 22 21 21 20 19 19 20 19 18 18 17 16 16 15 14 13 13 13 14 15 15 16 15 15 15 17 21 23 24 20 17
10 10 10 12 14 16 18 21 23 23 23 25 26 25 25 25 23 21 20 17 13 11 10 12 12 13 13 14 16 19 25 25 17 17 22 20 16 16 18 20 20 22 25 25 26 27 26 26 25 24 24 23 22 22 21 21 21 20 20 20 20 19 19 18 17 17 17 16 15 14 14 14 14 14 15 16 16 16 14 17 21 23 24 23 19
10 10 11 12 14 15 16 19 21 21 22 23 25 25 25 26 26 25 24 21 17 14 13 14 14 15 14 14 14 16 20 22 19 19 20 17 18 19 19 21 23 24 27 27 27 28 27 26 25 24 23 23 22 21 21 20 20 20 21 21 20 20 20 19 18 17 18 17 15 16 16 15 15 15 15 15 16 16 15 16 19 22 22 23 22
10 10 11 12 13 14 15 16 18 19 20 21 23 24 26 28 29 28 28 26 24 22 19 18 18 18 17 16 15 15 17 20 21 21 21 20 20 22 22 24 25 26 27 27 26 27 27 26 25 25 24 23 22 21 21 20 19 19 20 20 20 20 20 19 18 17 17 16 15 16 17 17 17 17 16 16 15 15 17 17 18 20 20 20 20
10 9 10 11 12 13 14 15 16 17 18 19 21 24 27 29 30 30 29 29 29 28 24 21 20 18 17 17 16 15 16 19 21 22 22 23 23 23 23 25 26 26 27 26 25 26 27 26 26 26 25 23 21 21 22 21 19 18 18 19 19 20 20 19 18 17 16 16 16 16 16 16 17 18 17 16 16 16 17 18 19 21 20 18 18
10 9 9 9 10 12 14 15 16 17 18 18 20 22 25 26 28 30 29 29 31 31 27 24 21 18 17 16 16 15 14 18 21 22 21 22 25 25 24 25 27 28 27 26 24 25 26 26 26 27 26 23 20 21 21 21 20 18 17 18 19 19 19 18 17 16 15 15 15 14 14 15 16 17 17 16 16 16 17 17 18 20 21 19 18
8 8 8 9 10 12 15 16 16 17 18 18 20 22 24 25 27 29 29 29 30 30 29 27 24 20 18 17 16 15 14 16 20 20 20 21 25 27 26 26 29 29 28 27 26 26 27 28 27 27 25 23 21 21 21 20 19 18 17 17 17 17 17 17 16 15 15 15 14 13 13 14 15 16 16 16 15 16 17 18 17 18 19 19 19
9 9 10 10 10 12 15 17 17 18 19 19 20 21 24 26 27 28 29 29 29 29 29 29 27 24 22 20 17 15 14 15 17 19 19 20 23 26 27 27 29 30 30 29 27 27 28 28 27 26 24 22 22 22 21 20 19 18 18 18 17 17 16 16 15 14 15 14 13 12 11 12 13 14 15 15 15 15 17 18 17 16 18 20 19
12 13 13 13 12 13 15 16 17 19 21 20 20 21 23 25 27 29 29 29 29 29 29 29 29 27 26 24 20 15 14 14 15 18 19 20 22 25 26 27 28 28 29 29 27 27 28 27 26 26 24 23 22 22 21 21 19 17 17 17 16 16 16 16 16 15 15 15 14 12 11 11 11 12 13 14 14 13 14 16 16 15 16 18 19
13 13 13 13 14 16 17 18 19 22 23 23 22 23 24 25 26 28 29 29 28 28 28 29 29 29 28 26 23 17 13 13 14 19 22 22 25 26 25 26 28 28 28 29 29 27 27 27 26 25 24 23 22 21 20 20 18 17 16 15 14 14 16 16 16 16 16 16 14 12 10 10 9 10 11 11 11 11 11 11 11 12 14 14 18
12 12 12 12 14 17 18 19 21 24 25 25 25 25 26 27 29 29 29 29 28 28 28 28 29 29 28 27 26 19 12 14 15 20 24 25 27 29 28 29 31 30 29 31 31 29 28 27 27 26 25 24 23 21 20 19 17 15 15 14 14 15 16 16 16 17 16 15 13 11 9 8 7 7 8 9 10 10 10 10 10 12 14 15 17
10 10 11 11 13 16 17 19 21 24 25 26 26 26 27 29 30 30 30 30 30 30 30 30 30 31 30 29 26 20 12 14 17 20 26 28 29 31 33 33 32 31 30 31 32 31 30 29 29 28 25 23 22 20 20 19 17 16 15 15 16 16 17 18 18 17 17 15 12 10 8 8 8 8 9 9 10 11 11 10 9 11 13 15 16
8 8 9 10 12 14 16 18 20 22 24 25 24 25 26 26 27 28 30 31 31 32 32 32 32 32 32 31 27 22 14 10 18 22 26 29 31 34 35 33 30 30 31 32 32 31 31 31 30 29 25 22 21 21 20 20 19 18 17 16 17 17 18 19 18 17 16 14 12 11 11 11 11 12 13 13 13 14 14 14 14 15 14 12 10
7 8 9 11 13 14 16 18 19 21 22 23 23 23 24 25 25 27 29 30 31 32 32 33 33 33 32 32 29 25 19 9 12 21 27 30 30 32 33 30 30 32 32 33 33 32 32 31 30 29 26 23 22 21 21 21 20 19 18 17 17 18 19 18 17 16 15 14 13 12 12 12 12 12 12 13 14 15 16 16 16 17 18 16 14
6 7 9 12 14 15 16 18 19 20 21 22 23 23 24 25 26 27 28 29 30 31 32 33 34 34 33 32 30 27 25 18 5 8 19 27 29 28 29 29 30 32 32 33 35 33 31 30 28 27 27 25 23 21 21 21 21 20 19 18 18 19 19 18 16 16 15 14 13 12 12 12 12 11 11 11 12 13 13 13 13 14 14 13 12
8 9 11 13 14 16 17 18 19 21 22 23 23 23 24 25 26 26 27 29 31 32 33 33 33 34 33 31 29 29 29 24 15 7 2 16 28 29 28 28 28 29 30 32 33 32 30 28 26 25 26 25 22 20 20 20 21 21 20 20 19 20 20 19 18 18 17 16 15 14 14 14 13 13 12 11 11 11 13 13 13 14 14 13 13
12 13 14 16 17 17 18 18 19 21 22 23 23 24 24 25 27 27 28 30 31 32 32 32 33 33 32 31 29 29 30 29 23 17 13 7 21 29 26 27 27 26 28 31 32 29 27 26 25 23 24 24 22 20 19 18 19 21 20 20 20 21 21 22 21 20 19 18 17 16 16 16 17 16 15 14 13 13 14 14 15 15 14 14 13
15 16 17 18 19 18 19 19 20 22 23 22 23 24 25 26 27 27 28 29 30 30 31 31 32 32 31 30 29 28 29 31 29 24 19 13 16 25 27 28 28 25 26 30 31 29 27 25 23 22 21 22 22 20 20 20 19 20 21 20 21 23 24 24 23 22 20 19 18 17 16 16 17 17 15 14 12 12 13 13 14 14 14 13 12
16 16 16 18 18 19 20 21 23 23 23 22 22 24 25 26 26 26 28 29 29 29 29 29 30 31 30 29 28 28 30 30 31 28 23 17 17 23 27 29 28 26 27 29 30 30 28 26 24 22 20 21 21 21 21 22 21 21 21 22 23 25 26 25 23 22 20 18 17 16 15 14 14 14 12 11 9 9 9 10 10 10 11 11 11
16 16 16 17 18 19 21 22 23 23 22 22 23 23 24 24 24 25 26 27 27 27 27 28 28 29 30 30 28 27 29 30 30 30 27 21 20 24 28 30 29 27 29 30 30 30 30 28 26 25 23 22 21 20 20 21 23 23 24 24 25 26 26 25 23 21 20 18 17 15 14 12 11 10 9 8 7 6 6 7 6 6 8 10 9
16 17 17 17 18 19 20 21 20 20 21 22 23 23 23 23 24 25 25 24 24 25 25 27 28 29 29 29 29 27 27 29 29 29 28 24 22 24 28 30 30 29 30 31 30 30 31 29 28 27 27 25 22 20 18 19 21 23 24 25 25 25 25 24 22 20 18 17 16 14 13 12 10 9 8 7 7 7 6 6 6 6 8 9 9
14 16 17 17 18 19 21 21 20 19 19 20 21 21 21 21 22 23 23 23 24 24 23 24 26 28 28 28 28 27 27 28 29 29 28 25 23 25 29 31 31 31 31 31 29 28 29 30 28 28 28 27 24 22 20 19 19 20 21 22 23 23 21 20 20 18 17 17 16 15 14 13 11 11 10 9 9 8 7 7 8 8 9 9 8
12 14 16 16 17 19 20 20 20 19 18 18 19 20 20 20 20 20 20 22 23 23 22 22 23 24 25 26 26 26 26 28 28 29 29 25 23 24 28 30 30 30 30 28 26 24 26 28 28 27 26 25 23 22 22 20 19 19 19 19 20 19 16 15 17 18 18 17 17 17 16 15 14 13 13 13 12 12 12 12 12 10 9 8 8
10 12 13 15 16 17 18 19 19 19 20 19 19 19 18 18 19 19 19 21 21 21 21 22 22 21 21 23 24 25 25 26 27 28 28 25 23 23 25 27 28 28 28 26 23 22 23 24 24 24 23 23 21 19 19 19 18 17 17 17 16 16 14 13 15 18 18 18 19 19 18 17 16 15 15 15 16 15 15 15 13 12 11 10 9
8 9 11 12 13 14 16 17 17 18 20 20 20 18 17 17 17 18 19 21 21 21 20 20 21 22 20 19 21 23 25 26 26 27 27 25 23 23 24 25 25 25 24 23 22 21 21 21 20 20 20 20 19 18 17 16 15 14 14 14 14 14 13 13 15 17 18 19 20 20 18 18 17 17 16 16 17 16 15 13 12 11 10 10 9
6 8 9 10 10 11 13 14 15 16 18 19 19 17 15 15 15 17 19 20 21 22 21 18 17 19 20 20 19 20 22 24 26 26 26 24 21 21 22 22 21 21 21 20 19 19 19 19 19 18 18 18 18 17 16 15 13 13 13 13 14 16 17 17 19 20 21 21 21 19 18 18 17 16 15 16 17 15 13 12 11 10 10 10 9
6 7 8 8 8 9 10 11 13 14 15 17 18 17 15 15 15 16 18 19 19 20 22 19 16 14 16 19 19 18 19 21 23 24 24 23 21 19 19 18 17 16 16 17 17 17 17 17 17 17 17 17 17 16 16 16 15 15 15 15 15 17 18 19 21 23 23 23 21 19 18 17 17 16 16 16 15 13 12 12 11 10 10 10 9
7 7 8 9 9 10 10 10 10 11 12 14 15 15 15 16 17 17 18 18 17 17 18 19 18 15 12 13 16 17 18 18 19 20 21 22 21 19 18 16 14 12 12 13 14 14 13 13 14 15 15 15 15 15 15 16 15 15 14 14 14 16 18 20 22 24 25 24 22 20 19 17 16 15 15 14 13 12 11 11 10 10 9 8 8
7 8 8 10 10 11 12 12 10 10 10 12 13 12 13 15 17 18 17 17 16 16 16 16 17 16 13 11 11 13 15 15 16 17 18 18 17 16 16 15 14 12 11 10 10 11 11 11 11 11 11 12 13 12 12 12 12 13 14 14 15 18 21 24 25 26 25 23 21 19 17 16 15 14 14 14 13 11 11 11 10 10 10 10 9
7 8 10 11 11 12 12 13 12 11 10 12 13 12 11 14 16 17 17 16 16 16 15 13 13 14 13 10 9 10 11 11 13 14 15 16 15 14 13 12 12 11 10 9 8 8 9 11 12 11 10 11 11 10 10 9 10 12 14 15 18 20 23 25 25 24 22 21 20 18 17 16 15 15 15 14 13 12 12 13 14 14 14 14 14
10 11 12 13 12 12 12 12 12 11 11 12 14 13 11 13 15 15 15 15 16 16 16 13 11 12 12 11 9 8 7 8 9 10 12 13 13 13 12 11 10 10 9 8 8 8 8 12 15 16 15 14 13 13 13 12 13 14 15 17 19 20 21 22 21 19 18 19 19 19 18 16 15 15 15 14 13 14 15 17 17 18 18 18 18
Wind_Direction
192 200 203 200 197 195 196 197 198 198 198 198 196 196 195 193 194 200 207 209 207 202 198 200 198 195 197 203 207 209 215 220 218 215 212 212 216 216 215 213 210 207 207 207 208 209 208 207 204 202 202 203 205 203 197 194 191 186 182 179 182 177 166 168 167 150 129 117 113 106 103 116 140 170 183 192 202 207 208 198 181 169 168 179 187
168 189 198 194 192 192 194 196 195 193 192 193 193 193 193 192 196 204 209 210 207 201 198 201 199 196 199 204 207 205 210 216 216 217 216 213 214 213 213 213 211 208 207 207 207 208 208 207 205 204 202 201 204 202 197 196 193 188 181 176 181 180 170 168 168 153 131 126 124 108 91 86 92 128 159 188 209 216 222 213 194 184 177 179 188
197 193 192 189 189 189 191 194 196 194 190 189 191 191 189 190 199 208 211 209 206 203 201 200 200 199 204 212 213 209 211 214 211 214 217 215 213 212 213 212 211 209 207 207 207 208 210 208 206 205 200 197 200 200 197 197 195 190 187 182 178 176 173 171 170 162 142 131 119 111 101 88 102 123 156 179 201 222 230 216 203 198 188 185 191
213 209 194 190 188 186 189 191 194 193 187 187 188 187 186 191 201 209 211 206 204 205 202 199 198 199 204 213 218 218 222 222 213 208 212 213 211 212 213 211 211 210 206 206 209 211 212 210 208 207 202 197 200 201 198 198 197 193 192 189 180 172 170 174 174 171 160 147 125 106 109 133 197 164 142 145 172 200 209 208 209 205 197 195 196
225 225 209 197 186 181 184 187 189 192 192 190 188 187 189 195 203 208 208 205 206 206 201 197 198 198 197 198 202 206 215 219 213 210 213 214 211 211 211 208 209 210 207 208 212 213 213 212 209 208 204 201 201 203 200 198 198 196 195 194 187 180 174 176 178 179 179 173 157 138 125 163 219 157 136 130 173 193 191 204 214 204 196 200 201
297 324 350 7 38 127 175 186 189 194 196 194 191 191 193 198 205 208 205 204 207 208 203 201 202 199 194 189 186 189 197 204 205 210 215 214 212 211 208 204 206 210 210 211 213 213 213 212 210 209 206 202 202 203 201 199 199 200 201 199 195 190 181 178 182 187 192 189 173 155 157 194 174 153 142 137 170 182 191 205 211 193 187 194 197
44 41 38 34 32 35 302 214 206 208 203 195 192 194 197 201 207 209 207 206 208 209 207 206 205 201 199 199 197 195 199 203 204 210 216 216 214 210 205 203 206 209 210 211 212 211 211 210 210 208 206 202 201 202 202 201 202 203 205 206 203 196 186 181 186 190 194 197 195 192 218 225 175 166 168 164 155 177 193 194 195 190 187 190 194
53 56 49 30 12 19 18 6 358 330 221 182 155 163 210 215 212 217 218 214 214 215 215 213 209 205 204 203 204 205 206 207 206 210 215 216 214 209 206 205 208 211 212 212 210 208 208 209 208 205 204 202 200 203 203 203 204 205 207 210 209 202 195 191 191 192 196 200 204 219 247 218 183 183 181 163 135 149 172 179 190 194 196 196 196
41 46 49 28 7 24 33 27 18 15 33 82 92 111 232 228 216 219 222 219 219 221 222 221 216 210 207 206 207 210 210 208 207 208 211 212 212 209 208 209 210 212 214 214 210 208 208 207 205 203 201 200 200 203 205 205 205 206 208 210 209 207 206 205 202 200 203 204 202 211 216 181 175 185 181 164 136 146 154 158 179 183 194 199 196
37 39 49 41 28 37 41 41 34 30 52 116 177 198 221 227 219 216 221 220 221 225 227 227 222 214 209 209 210 211 211 209 207 205 207 209 210 209 208 210 211 212 213 214 213 214 214 210 204 201 201 201 202 204 205 207 207 207 209 209 209 211 211 213 215 213 211 207 204 204 189 169 162 164 177 170 146 147 156 160 172 174 182 192 194
30 31 38 37 34 37 37 44 51 48 72 154 186 202 218 224 219 215 218 220 221 227 230 229 225 219 214 213 213 212 212 211 207 204 206 208 208 206 203 204 211 213 212 211 213 218 221 216 207 203 202 203 206 207 206 208 208 207 208 208 208 212 214 216 219 223 219 211 209 212 203 189 184 184 185 180 166 155 152 150 168 175 178 188 194
26 26 27 27 29 29 29 41 53 55 73 173 195 208 217 222 225 222 221 221 222 228 236 238 233 225 220 218 216 213 213 214 212 209 210 211 210 206 203 206 213 214 210 208 209 210 214 216 210 204 204 206 209 210 208 208 210 209 209 209 209 212 216 218 219 222 221 213 210 215 218 212 206 203 196 190 184 174 163 148 158 168 176 191 192
25 22 19 19 18 19 21 31 36 24 354 276 231 239 236 232 239 235 225 223 222 224 243 261 267 252 234 226 221 216 214 217 218 216 215 215 213 209 208 213 215 213 208 207 206 203 205 210 211 207 204 207 209 209 208 208 209 210 210 211 212 213 215 218 220 223 223 219 215 216 221 222 217 215 209 200 194 178 162 149 154 168 171 174 186
24 18 16 14 9 10 7 6 10 360 353 339 295 304 301 275 285 267 230 223 224 223 227 243 274 274 254 238 230 222 217 219 220 219 217 216 216 214 215 220 221 218 212 209 206 203 202 203 209 210 206 205 208 208 208 207 206 208 210 212 214 217 218 218 221 225 226 224 221 220 221 223 221 220 219 210 200 188 173 158 151 161 166 155 168
24 17 14 8 4 7 4 1 358 338 334 339 326 317 303 299 314 306 261 234 229 228 225 224 239 252 249 242 236 228 224 225 225 224 221 218 217 217 219 223 225 223 218 213 208 204 202 200 206 210 206 203 206 208 207 204 205 208 210 214 216 218 219 218 219 223 225 224 224 224 225 224 222 222 226 223 214 208 198 177 161 149 142 153 155
23 17 13 7 3 4 4 4 3 353 344 346 344 339 318 303 310 306 289 266 247 243 236 231 232 233 233 236 237 230 227 231 231 230 227 223 221 222 223 224 225 223 218 213 207 203 203 202 206 209 207 207 207 206 205 204 207 210 211 215 217 217 216 215 217 222 222 223 224 227 228 226 226 227 228 228 223 220 216 196 177 165 157 157 162
18 15 12 8 5 2 1 1 3 5 7 7 5 1 346 317 299 291 288 280 263 256 248 242 240 235 230 233 237 231 227 231 234 234 234 231 229 229 228 228 226 222 216 209 204 203 203 202 206 209 208 207 205 203 203 204 207 209 210 213 214 213 211 211 216 221 222 224 225 225 228 230 230 230 227 229 228 224 220 209 194 183 173 161 161
9 11 10 8 7 3 359 357 359 3 8 12 14 13 9 354 312 283 277 275 272 269 260 252 253 259 249 241 243 240 233 232 234 235 236 235 234 234 234 235 233 227 219 210 204 201 200 200 202 203 202 200 201 202 203 205 207 207 208 211 211 208 207 209 214 218 220 222 223 223 227 231 231 229 229 232 231 226 221 214 205 196 186 178 173
8 8 7 5 5 3 357 354 356 0 3 7 12 16 17 13 356 325 300 292 295 289 272 256 253 267 265 248 244 248 244 238 235 234 235 232 229 232 234 236 241 243 231 216 207 200 197 199 198 198 199 198 200 202 201 203 203 204 207 209 208 206 207 210 213 217 220 218 218 221 224 227 227 226 230 234 228 223 222 217 209 200 195 192 184
10 6 4 2 2 2 357 351 354 359 1 4 10 14 14 12 9 2 351 340 326 302 277 264 258 262 266 252 243 246 248 246 238 232 233 231 227 230 232 230 231 239 238 227 215 204 197 197 197 198 200 200 199 198 196 198 200 203 208 208 206 206 208 211 211 214 218 218 218 219 220 222 222 223 228 228 221 219 221 220 215 205 199 201 194
9 6 2 358 358 0 357 354 357 0 2 6 9 10 9 9 9 7 6 5 356 334 304 290 279 272 272 263 252 247 247 247 238 228 235 236 234 235 233 227 223 226 229 227 221 210 200 196 196 198 200 199 197 195 194 197 200 203 207 207 205 204 207 210 210 213 217 218 220 219 218 220 221 223 225 223 221 221 221 220 218 210 203 206 204
8 6 2 356 356 357 356 357 359 359 359 3 7 7 6 4 3 3 5 3 356 343 324 312 301 283 272 266 264 256 249 246 233 227 235 235 237 240 233 227 222 217 217 217 219 216 206 197 195 197 199 198 196 195 196 199 202 205 206 206 206 205 206 208 210 215 217 218 221 221 218 219 219 221 221 222 223 222 220 220 218 214 209 210 211
6 7 2 357 357 357 358 359 359 357 356 359 3 3 3 2 1 1 2 358 349 337 325 318 312 298 281 268 264 259 252 246 237 233 231 223 229 234 229 227 221 212 209 209 215 220 211 198 196 197 198 198 197 197 199 199 201 204 205 205 206 205 205 205 207 213 215 216 219 219 219 221 222 222 219 221 225 222 220 220 215 214 214 214 216
7 8 2 359 1 3 4 4 1 359 357 356 357 360 3 5 4 1 359 356 351 344 335 328 325 316 302 282 264 253 246 241 240 239 229 219 224 226 220 220 215 208 206 204 211 220 213 200 197 197 198 199 197 197 198 197 200 204 204 203 203 203 203 204 207 211 212 213 215 217 220 222 223 224 221 221 224 222 219 215 210 210 212 216 220
6 8 4 1 4 7 8 6 3 1 358 355 354 357 0 3 3 2 357 353 353 352 348 344 339 329 316 296 274 260 245 234 235 238 230 218 216 215 211 212 209 205 204 201 206 217 213 202 198 197 196 196 196 198 198 199 202 205 206 206 205 205 207 208 212 213 212 214 216 218 219 219 221 225 225 223 224 223 220 217 213 211 212 219 225
7 5 3 3 7 10 10 8 5 2 360 358 356 354 354 355 359 1 358 353 353 355 354 352 348 340 327 310 290 275 259 237 231 235 233 221 214 211 209 208 205 202 201 197 201 212 210 200 196 195 195 196 196 197 197 199 201 202 205 207 207 208 210 212 215 216 215 215 216 217 217 216 220 224 225 226 227 224 220 217 218 218 217 221 225
11 8 5 7 11 12 11 10 7 4 3 4 1 357 354 352 354 359 1 358 356 357 357 354 351 347 337 325 310 291 272 247 234 233 232 222 214 211 208 206 203 200 199 194 196 206 206 197 194 195 195 195 194 193 194 199 202 203 205 205 204 206 209 209 212 213 212 212 214 218 219 219 223 226 226 226 227 224 219 216 217 218 215 215 217
12 12 9 11 12 11 11 9 6 7 8 8 6 2 359 357 356 360 4 4 1 2 1 357 353 348 341 334 325 306 283 262 246 237 228 218 212 208 204 202 200 199 199 194 194 203 202 196 195 194 192 192 192 192 195 201 205 206 206 205 206 208 208 208 211 212 210 211 217 223 225 227 229 229 229 230 229 225 219 215 213 209 207 209 211
13 11 9 10 9 6 7 4 4 7 9 8 7 5 4 3 2 3 5 5 4 3 4 3 359 351 344 339 335 319 293 273 252 237 225 212 207 204 198 194 194 195 193 189 191 200 198 192 192 191 190 192 191 191 196 201 204 202 202 204 208 208 207 208 211 211 211 214 217 221 226 231 233 231 231 233 230 227 225 222 214 203 199 206 212
16 11 9 8 5 2 2 1 3 6 5 4 5 5 5 5 4 5 5 5 3 1 2 5 4 358 349 343 342 333 299 268 242 225 215 203 197 198 194 190 189 190 187 183 188 196 194 191 191 190 191 192 191 192 196 199 199 197 198 201 200 198 199 202 204 205 206 209 211 216 225 230 233 231 228 226 224 223 224 223 216 206 200 206 216
16 12 10 8 5 3 2 2 3 3 3 2 1 3 6 7 7 7 6 7 6 4 3 4 4 3 359 351 348 342 303 260 234 213 203 195 191 192 192 189 186 187 187 185 188 192 193 192 191 189 189 190 189 190 192 193 191 190 194 196 192 192 194 194 193 192 193 196 201 209 215 214 211 210 209 211 212 208 200 197 203 208 209 211 215
13 8 6 7 5 3 2 1 0 1 3 2 360 1 4 6 7 8 9 12 12 10 7 5 4 6 7 4 358 349 314 261 237 216 201 194 189 187 187 186 184 185 187 186 187 190 190 190 187 184 183 184 184 185 185 184 180 176 180 183 181 183 187 187 187 186 186 189 193 193 188 183 177 169 166 168 169 168 166 168 173 184 196 206 215
10 5 5 7 6 5 4 3 2 3 4 4 2 3 3 3 5 8 12 15 15 13 10 8 7 7 9 11 9 2 343 272 235 219 204 195 188 182 182 183 182 183 183 180 181 183 182 181 179 176 175 174 176 177 176 176 173 171 172 171 169 174 180 183 184 184 182 181 180 176 170 168 167 162 156 149 143 139 135 131 128 127 131 140 158
10 10 8 6 8 9 9 9 9 7 7 8 9 8 7 7 8 11 15 17 16 15 12 10 9 9 10 14 16 14 7 336 235 214 203 195 186 178 178 180 181 180 177 174 174 174 172 171 171 170 168 167 168 170 171 172 172 173 175 171 167 172 178 180 179 179 176 171 170 170 167 167 170 170 167 158 148 140 132 126 122 118 113 110 111
13 15 10 6 8 9 10 13 14 13 14 14 13 12 12 13 14 14 17 19 19 17 14 12 11 11 12 16 20 20 16 13 356 217 200 188 176 169 172 175 175 173 169 166 166 167 165 163 163 163 161 158 159 163 167 170 171 174 177 175 170 171 174 173 169 168 165 159 157 158 156 161 169 173 171 165 159 157 154 144 132 122 117 114 110
12 11 5 4 8 10 12 16 19 22 22 19 18 19 17 17 18 18 18 21 22 20 16 14 12 12 12 15 23 26 22 23 34 40 140 163 157 157 161 162 160 159 157 154 154 156 156 154 154 156 154 149 148 153 160 167 172 176 176 172 168 166 165 161 155 152 150 144 142 143 141 142 146 152 155 155 156 161 161 151 134 121 116 114 108
13 12 9 10 14 16 17 18 22 26 26 24 25 26 24 22 22 21 21 23 23 21 18 15 13 13 13 15 24 34 31 27 40 48 32 81 135 142 147 149 146 143 142 141 141 141 143 144 145 147 147 142 140 144 151 160 171 179 178 169 163 160 155 149 143 140 140 137 134 135 136 135 133 135 138 143 149 151 147 137 126 117 113 110 105
16 15 14 16 18 19 17 18 22 24 25 26 28 29 29 27 24 22 23 24 23 20 19 18 16 16 17 18 25 40 43 35 37 48 42 41 99 122 130 135 134 129 125 127 129 127 127 130 132 134 138 139 137 139 146 152 161 173 177 170 162 155 147 141 137 134 134 133 129 128 131 132 131 130 133 138 146 148 141 132 126 123 116 108 104
27 23 18 17 21 22 21 22 23 21 23 28 30 30 31 29 26 25 26 26 23 20 20 22 22 23 24 25 27 40 52 47 39 44 50 49 73 101 115 120 120 115 111 112 116 116 114 113 116 119 126 133 135 137 145 149 151 159 164 164 161 154 143 136 135 133 130 129 127 124 125 126 126 127 132 135 139 146 142 131 129 130 121 109 105
31 31 29 26 27 25 24 24 23 21 25 30 32 32 31 28 26 27 27 26 24 24 25 27 29 31 31 31 31 37 52 58 51 47 49 53 67 88 101 106 106 103 102 102 104 105 104 102 104 106 110 117 124 131 141 148 149 149 151 153 153 149 141 136 133 131 129 126 125 123 119 117 117 120 125 126 125 128 129 121 119 121 114 108 109
32 31 31 30 29 28 27 26 24 23 25 29 31 32 29 26 26 24 24 25 26 28 31 31 33 36 36 36 36 38 48 61 64 59 52 51 62 78 88 94 95 95 95 94 94 96 97 96 97 98 97 99 105 115 128 140 145 144 145 147 145 140 137 136 132 128 126 122 119 118 113 108 108 110 111 112 108 103 104 105 103 100 104 110 115
40 35 31 27 25 26 27 26 25 24 22 22 25 27 25 23 22 21 21 25 27 28 32 34 35 37 37 38 40 42 47 56 67 71 66 59 61 73 82 86 87 87 87 86 85 87 89 90 91 91 91 91 92 99 108 119 128 130 132 134 130 125 127 130 125 119 117 115 112 110 107 106 108 108 107 105 102 100 97 91 89 92 99 107 110
43 36 32 30 27 26 25 25 25 25 24 21 20 20 18 18 19 19 20 22 23 25 29 35 38 39 38 37 40 45 49 54 63 74 80 77 71 72 80 85 86 84 84 82 79 79 82 85 86 86 88 90 89 91 95 102 110 115 117 118 116 113 115 118 114 109 108 108 107 107 109 112 113 111 107 102 98 95 91 88 87 91 97 103 107
37 33 33 35 33 30 30 29 26 27 29 29 25 19 14 12 15 19 19 18 19 21 27 33 38 41 41 40 40 44 50 55 61 71 80 85 84 79 78 81 84 85 83 80 78 77 77 80 82 84 88 91 90 91 94 96 100 105 107 108 111 111 111 110 109 109 109 109 112 114 116 117 115 111 107 102 96 92 90 90 91 94 99 106 112
30 28 28 32 35 34 34 33 32 34 35 33 30 25 16 12 16 20 21 21 21 21 24 29 35 39 42 43 43 45 48 53 59 66 72 78 85 86 83 81 83 84 83 82 81 81 80 80 81 84 89 93 94 96 98 98 99 101 100 101 104 106 109 112 112 112 114 117 120 120 118 116 113 111 107 102 96 93 93 94 94 96 100 103 103
20 17 15 20 29 31 31 33 35 38 39 36 34 31 22 16 17 18 18 21 24 23 23 25 32 36 38 43 46 48 48 50 55 62 68 73 79 84 86 84 82 79 79 80 81 80 80 82 84 86 89 93 96 99 101 103 106 107 107 107 106 108 112 114 112 113 118 123 123 122 121 117 112 107 104 99 96 94 94 92 90 90 92 92 92
349 353 357 3 11 16 18 23 28 33 36 36 35 31 23 18 17 16 17 19 21 22 22 24 28 32 35 40 46 49 51 53 56 59 63 68 72 80 86 89 88 85 82 83 81 76 73 77 82 83 82 82 85 91 98 102 104 104 106 108 109 111 113 114 115 119 126 128 128 126 122 117 111 106 102 97 94 91 87 84 82 81 82 83 84
335 339 345 349 350 350 352 360 13 23 26 26 28 27 22 22 23 22 20 20 19 22 25 26 27 28 32 38 45 50 52 55 59 62 63 63 64 68 73 76 82 89 94 98 96 87 80 81 83 81 78 73 70 72 78 83 86 90 96 102 109 116 122 125 128 131 132 131 130 127 121 115 110 104 96 88 84 81 77 75 74 74 77 84 91
332 336 336 335 334 335 337 341 350 3 11 12 15 18 19 22 24 22 21 23 27 29 31 30 30 32 34 34 40 50 55 57 60 64 68 70 70 70 70 69 69 71 77 87 96 100 107 109 99 87 84 81 76 74 76 81 88 99 109 117 123 129 133 134 135 137 136 132 127 121 114 108 102 94 87 80 75 72 71 72 74 77 81 87 91
334 333 329 326 325 326 327 330 337 347 355 359 2 6 15 22 22 21 23 29 35 37 37 38 37 39 42 42 36 42 54 62 66 69 72 76 79 81 85 86 83 78 74 74 79 93 119 128 120 111 109 106 104 108 112 114 119 125 131 132 132 135 138 137 138 140 138 131 122 113 104 99 94 89 84 80 75 74 78 82 84 85 84 84 83
327 323 321 321 321 320 319 321 330 341 344 347 351 355 4 16 20 24 30 34 36 36 38 42 43 43 47 50 45 38 40 50 66 79 84 86 87 86 87 91 96 98 100 101 98 101 117 123 118 118 121 123 125 130 135 138 141 142 139 136 135 137 138 139 143 144 133 121 115 107 99 94 90 86 84 84 84 88 92 93 91 88 85 83 82